User: anonymous   Login
Location: Unspecified
(0.0000°N, 0.0000°E)
Time: 20:14:14
(UTC+00:00)
Language:

FENGYUN 1C DEB - Orbit

View from above orbital plane
View from above orbital plane
View from above satellite
View from above satellite

Ground track
Ground track

The orbit data is extracted from the following two-line orbital elements,

1 37694U 99025ELK 24002.17382154  .00003206  00000-0  17520-2 0  9991
2 37694  98.2025 123.7473 0167751 341.5610 136.8601 14.05735397716745
Epoch (UTC): 02 January 2024 04:10:18
Eccentricity: 0.0167751
inclination: 98.2025°
perigee height: 752 km
apogee height: 995 km
right ascension of ascending node: 123.7473°
argument of perigee: 341.5610°
revolutions per day: 14.05735397
mean anomaly at epoch: 136.8601°
orbit number at epoch: 71674

The dashed part of the orbit path shows where the satellite is in the earth's shadow,  

DLR